Regional Weather Roundup
Issued by NWS Jackson, KY

Home | Current Version | Previous Version | Text Only | Print | Product List | Glossary Off
Versions: 1 2 3 4 5 6 7 8 9 10 11 12 13 14 15 16 17 18 19 20 21 22 23 24 25 26 27 28

000
ASUS43 KJKL 242010
RWRJKL

EAST KENTUCKY HOURLY WEATHER ROUNDUP
NATIONAL WEATHER SERVICE JACKSON KY
400 PM EDT SUN SEP 24 2017

NOTE: "FAIR" INDICATES FEW OR NO CLOUDS BELOW 12,000 FEET WITH
NO SIGNIFICANT WEATHER AND/OR OBSTRUCTIONS TO VISIBILITY.

* THESE REPORTS ARE NOT UNDER NWS QUALITY CONTROL AND MAY NOT
  REPORT WEATHER SUCH AS PRECIPITATION AND FOG.

KYZ079-080-083-085-087-088-110-112-115-119-120-242100
...EASTERN KENTUCKY...

CITY           SKY/WX    TMP DP  RH WIND       PRES   REMARKS
JACKSON        SUNNY     86  62  44 CALM      30.08F
LONDON         SUNNY     85  62  46 SW6       30.07F
SOMERSET*      MOSUNNY   84  61  45 CALM      30.06F
MONTICELLO*    PTSUNNY   88  66  48 W12G20    30.06F HX  90
WILLIAMSBURG*  CLEAR     86  63  45 CALM      30.06F
MIDDLESBORO*   SUNNY     86  61  42 CALM      30.07F
HARLAN APT*    CLEAR     84  57  39 E3        30.08F
PIKE CO APT*     N/A     83  59  44 CALM      30.09F
BIG SANDY APT* CLEAR     83  61  47 NE5       30.09S
MOREHEAD APT*  CLEAR     84  59  42 VRB5      30.09F
$$

KYZ035-036-041-042-044-050-067-078-099-242100
...CENTRAL KENTUCKY...

CITY           SKY/WX    TMP DP  RH WIND       PRES   REMARKS
MT STERLING*   SUNNY     86  59  39 SE8       30.08F
FLEMING/MASON* SUNNY     86  60  42 SE6       30.08F
DANVILLE*      MOSUNNY   82  63  51 CALM      30.07S
LEXINGTON      SUNNY     88  61  40 VRB6      30.06F
FRANKFORT      SUNNY     89  56  32 E7        30.04F
LOUISVILLE     MOSUNNY   91  54  28 E10       30.02F
LEBANON*         N/A     88  59  37 N6        30.04F
GLASGOW*       PTSUNNY   89  64  44 W3        30.03F HX  90
BOWLING GREEN  MOSUNNY   85  68  56 SE7       30.02F
$$

KYZ091>093-OHZ055-061-077-WVZ005-015-034-035-042-242100
...SOUTHERN OHIO/WEST VIRGINIA...

CITY           SKY/WX    TMP DP  RH WIND       PRES   REMARKS
COVINGTON      MOSUNNY   89  56  32 SE9       30.06F
COLUMBUS       MOSUNNY   90  59  35 E10G16    30.08F
DAYTON         MOSUNNY   88  53  30 SE13G22   30.08F
WILMINGTON     SUNNY     86  54  33 SE9       30.08F
HUNTINGTON     SUNNY     87  56  34 VRB5      30.06F
CHARLESTON     MOSUNNY   89  55  31 CALM      30.06F
PINEVILLE*     SUNNY     86  48  26 MISG      30.14F
BECKLEY        SUNNY     82  50  32 SE8       30.14F
BLUEFIELD      SUNNY     79  49  34 VRB5      30.17F
LOGAN CO APT*    N/A     84  61  45 CALM      30.09F
$$

VAZ002-007-008-TNZ017-027-036-066-071-242100
...SOUTHWEST VIRGINIA/EAST TENNESSEE...

CITY           SKY/WX    TMP DP  RH WIND       PRES   REMARKS
WISE*          SUNNY     82  50  32 CALM      30.16S
JONESVILLE*      N/A     86  57  37 CALM      30.09F
ABINGDON*      SUNNY     86  54  33 E5        30.10F
BRISTOL        MOSUNNY   87  58  37 W5        30.07F
MORRISTOWN*    CLEAR     86  57  37 VRB5      30.04F
SEVIERVILLE*   PTCLDY    88  55  33 N3        30.03F
KNOXVILLE      MOSUNNY   85  60  42 N7        30.03
LAFOLLETTE*    CLEAR     86  63  45 CALM      30.09F
OAK RIDGE      SUNNY     87  61  41 VRB3      30.06F
CROSSVILLE     SUNNY     76  66  71 CALM      30.10F
NASHVILLE      PTSUNNY   88  60  38 S3        30.01F
$$

...KEY TO REMARKS...
VSB - VISIBILITY IN MILES
WCI - WIND CHILL INDEX
HX  - HEAT INDEX

$$




USA.gov is the U.S. government's official web portal to all federal, state and local government web resources and services.